Theta_e
304 304 303 303 302 302 301 300 299 302 303 301 305 309 309 308 310 309 310 309 309 310 312 313 314 313 311 311 312 314 312 312 312 314 312 311 313 314 312 313 314 310 313 317
304 304 304 303 302 304 302 298 298 302 302 301 305 306 309 308 310 309 310 310 310 311 312 314 312 312 311 311 311 312 310 310 310 309 307 310 312 310 310 309 307 311 312 313
304 304 304 304 303 305 303 297 300 300 299 299 305 305 308 310 308 309 308 309 310 311 312 311 313 313 312 310 310 310 308 308 309 307 312 311 311 309 309 307 306 310 310 312
302 304 304 305 305 305 304 296 298 300 303 304 304 305 308 310 310 308 307 309 308 310 312 310 309 309 309 310 309 310 307 309 305 309 309 310 308 308 309 309 309 309 311 311
303 303 303 304 305 305 304 301 302 299 301 301 304 306 309 310 309 308 310 310 308 307 309 308 310 308 308 310 307 309 306 306 309 305 308 307 309 306 309 310 310 310 310 312
302 303 304 304 305 306 304 302 302 300 303 302 306 307 309 309 308 308 307 308 308 308 308 305 305 304 304 305 308 307 308 306 304 304 306 307 305 306 309 310 310 310 312 309
303 301 303 304 304 305 305 303 301 301 305 303 304 308 308 307 307 309 307 306 308 307 303 303 304 303 304 306 306 304 306 306 301 303 304 305 302 305 306 308 309 308 309 308
303 303 302 304 304 304 305 303 302 300 303 301 304 304 307 304 304 305 306 306 305 302 303 306 306 306 306 307 305 306 304 304 303 304 304 303 305 305 306 308 308 306 308 306
303 304 302 302 303 304 305 305 304 299 301 301 300 302 303 304 304 303 306 304 304 303 303 303 308 306 307 306 305 303 303 302 305 304 307 305 304 306 305 304 302 304 305 305
303 303 303 301 302 303 305 304 305 301 300 296 298 303 304 302 303 303 302 304 305 303 303 306 306 304 304 306 306 306 304 304 306 306 306 304 302 304 304 305 300 303 303 303
304 302 303 303 300 302 303 302 303 303 297 296 297 298 300 301 301 306 304 304 304 303 305 306 304 304 303 303 302 305 303 303 305 303 306 303 302 304 304 300 302 303 303 302
304 303 303 303 302 300 302 303 303 302 300 298 298 298 299 299 299 300 300 304 303 302 304 301 300 304 300 300 303 300 305 302 302 303 303 299 300 302 301 299 301 302 302 301
303 304 303 303 303 299 301 302 302 301 296 296 296 297 298 298 298 299 303 300 300 301 298 301 301 305 300 304 300 302 301 299 303 303 300 299 300 300 301 299 300 300 300 299
301 304 304 304 304 301 300 301 301 303 299 301 300 297 297 299 298 298 298 298 298 298 297 300 301 304 299 301 300 300 300 300 302 300 300 299 299 298 300 299 298 298 297 297
301 303 304 304 304 302 300 299 299 301 302 301 299 297 298 298 298 298 297 297 297 298 300 299 302 298 298 296 296 297 298 301 302 302 299 299 299 299 297 297 297 296 296 294
299 302 303 304 303 302 302 297 300 297 300 296 300 296 296 297 297 297 297 297 295 296 298 299 297 295 299 299 299 298 296 297 298 301 298 298 298 298 296 297 296 295 294 293
299 301 303 301 301 301 300 298 298 296 299 296 297 296 295 296 296 295 295 295 294 296 297 297 297 297 297 297 300 300 298 297 297 297 297 300 297 298 295 295 295 296 293 292
298 300 302 299 299 299 299 298 297 296 298 294 293 293 295 295 295 297 292 295 293 294 296 295 296 295 295 299 298 297 297 297 297 295 295 297 295 293 293 292 291 291 290 288
300 301 301 299 299 298 299 298 297 297 295 293 290 292 294 293 294 294 294 293 296 293 297 296 296 296 297 300 298 298 298 298 298 294 294 294 295 293 292 291 290 290 289 287
302 301 299 296 298 298 297 296 294 290 291 290 292 289 295 293 293 296 295 294 296 293 297 294 296 297 297 297 296 295 295 295 293 294 294 294 294 292 291 291 290 290 287 286
302 298 295 297 296 296 291 293 293 293 294 293 290 290 293 291 295 296 295 290 290 293 294 297 296 297 295 295 294 292 290 291 293 294 295 293 293 293 291 291 289 287 287 287
301 298 296 296 292 289 291 289 290 292 296 291 293 293 292 292 291 296 294 293 290 294 290 293 295 294 293 293 292 291 290 291 292 293 293 291 292 292 291 289 287 287 288 287
298 295 290 291 289 291 290 295 289 286 289 289 290 292 292 291 293 293 293 294 296 291 289 294 293 293 292 290 290 291 291 291 291 292 292 291 290 291 290 286 287 287 286 286
295 294 293 292 288 291 292 291 289 289 288 290 290 290 293 292 293 293 291 295 293 289 292 294 291 291 291 290 290 291 291 289 287 288 288 287 287 287 288 288 287 286 285 285
296 292 295 291 291 285 283 281 285 286 289 289 290 290 291 290 292 294 291 290 290 292 294 292 289 290 291 290 290 290 290 288 286 285 284 284 286 285 286 287 286 286 285 284
292 287 289 288 289 291 289 282 284 285 289 286 289 289 290 291 292 291 293 291 292 294 288 289 286 291 290 289 289 289 289 288 287 286 286 286 285 284 285 285 285 284 284 283
299 295 290 292 293 296 292 289 289 288 291 290 288 289 293 290 289 293 291 292 292 290 287 284 288 291 290 288 288 289 289 288 287 287 286 286 286 286 284 281 283 283 283 283
Wind_Speed
13 10 6 4 6 11 8 3 3 15 19 4 3 3 2 3 2 2 2 1 3 4 3 3 2 4 4 6 5 4 5 1 4 6 1 2 3 3 3 2 2 1 1 2
11 11 9 5 8 10 3 2 2 6 5 4 4 2 1 1 3 1 3 2 2 2 4 1 4 4 4 7 4 3 2 1 4 7 5 4 3 4 4 2 2 1 2 1
12 12 10 7 5 10 5 2 3 4 4 1 2 4 4 4 3 2 3 4 2 2 2 2 1 1 2 3 3 3 2 1 3 4 4 3 6 9 7 1 3 2 2 2
16 14 13 11 7 5 4 4 1 2 3 4 3 2 3 4 6 5 7 4 5 2 3 3 4 3 4 1 3 2 2 1 0 3 4 2 2 5 9 6 1 2 3 1
14 17 14 13 8 6 6 3 2 3 2 3 4 6 5 4 3 5 5 4 5 5 4 2 2 2 2 1 4 1 2 1 0 3 4 6 4 5 5 4 3 5 3 0
11 12 15 15 11 5 5 2 1 3 5 5 3 4 4 5 2 1 2 2 2 5 2 4 5 5 5 4 1 1 2 2 3 4 4 5 4 3 2 2 1 1 1 1
13 11 12 14 13 11 7 3 2 3 3 3 3 5 4 7 6 3 4 4 3 3 7 3 2 3 6 4 1 1 3 3 2 3 4 3 4 3 4 3 4 3 3 2
13 14 11 10 9 8 11 5 2 3 1 1 4 8 5 5 5 5 3 3 2 4 5 3 4 4 3 1 1 1 1 3 2 2 1 6 1 4 5 5 5 6 4 2
7 13 14 9 5 4 8 11 6 3 4 2 3 1 2 1 3 6 3 3 5 4 3 3 2 2 2 5 8 4 4 4 3 1 0 4 4 2 2 3 5 6 6 5
6 7 13 14 6 2 4 6 5 6 3 2 2 2 2 1 1 1 4 6 6 3 3 3 1 3 2 3 4 3 3 2 3 2 3 7 4 4 2 2 5 5 6 6
7 6 10 12 12 1 2 5 4 2 3 3 6 4 2 1 0 2 3 2 3 3 3 2 1 1 2 3 4 2 2 2 3 1 2 6 5 3 6 4 0 3 2 4
7 8 8 11 12 6 4 3 5 4 4 2 6 8 8 8 4 3 1 2 1 3 3 1 1 2 1 3 4 1 3 5 3 7 5 4 7 4 4 4 4 4 4 4
5 7 8 10 9 11 3 1 6 2 3 2 1 5 10 9 8 8 4 2 2 1 3 2 1 4 3 3 5 2 4 4 4 1 3 7 7 4 4 6 5 4 4 5
6 4 6 7 7 7 5 1 2 2 3 2 4 2 5 7 10 9 6 3 3 4 2 2 3 3 4 4 4 5 5 6 4 6 8 6 8 7 6 5 4 4 3 3
5 4 5 7 7 5 4 3 2 1 2 3 3 2 6 7 8 8 6 5 2 2 2 2 4 2 2 2 2 4 6 7 6 6 7 3 5 2 7 8 7 7 6 4
7 7 9 6 6 7 3 3 2 3 1 2 3 2 2 5 5 5 6 5 1 1 2 3 2 2 1 2 4 7 7 4 5 4 1 2 2 1 3 6 6 6 7 5
8 6 5 4 5 6 3 3 2 3 1 2 3 3 2 2 3 1 1 2 1 2 2 3 1 2 3 2 4 3 6 8 6 2 5 1 4 4 6 5 6 9 6 7
7 7 6 5 4 4 6 7 3 3 2 3 1 4 3 2 2 2 1 2 1 2 3 1 2 1 1 5 7 6 6 5 5 8 6 2 4 6 6 6 7 6 6 5
6 6 5 6 5 3 2 4 5 5 2 2 2 4 4 1 1 1 1 1 1 1 3 3 3 2 5 9 6 5 4 5 3 4 3 3 4 6 7 7 7 7 6 6
6 6 3 2 2 2 2 1 1 2 1 1 3 1 2 2 1 0 1 1 2 2 3 1 3 4 9 11 10 9 10 8 8 6 3 4 4 7 7 7 6 6 6 7
7 4 3 4 2 1 3 2 2 2 2 4 2 3 3 2 3 3 2 2 1 1 3 2 3 4 5 4 6 6 7 8 13 6 4 8 5 8 7 5 6 9 11 7
11 4 3 2 2 3 1 3 3 4 6 4 5 4 3 2 2 2 1 2 2 5 1 1 3 4 7 5 6 6 6 5 7 5 5 7 8 12 10 8 9 12 12 9
9 1 3 2 2 1 7 7 4 2 3 4 4 3 4 2 1 3 2 3 5 1 1 4 5 4 5 6 5 4 1 6 7 5 5 9 8 14 16 12 14 14 11 9
3 5 5 6 4 6 5 5 4 3 2 4 2 3 4 2 3 3 3 3 2 1 2 6 3 6 4 4 3 2 4 7 7 8 9 9 11 11 14 17 18 16 13 10
4 4 6 8 4 1 2 3 2 1 3 3 3 3 2 2 4 3 3 2 5 6 5 3 4 3 3 4 2 5 5 5 5 6 6 9 14 14 14 14 14 13 11 10
2 3 2 3 1 2 2 2 2 3 4 2 2 3 2 3 4 4 8 6 7 4 4 4 2 3 3 4 4 6 6 6 6 9 10 13 15 14 14 14 12 11 10 10
5 5 3 3 0 3 3 4 4 7 3 3 3 4 8 2 2 4 5 6 4 4 3 2 4 4 3 4 5 5 7 7 10 9 12 15 15 13 14 8 13 11 10 8
Wind_Direction
37 55 57 358 333 335 360 53 35 335 345 55 48 54 19 0 304 260 287 224 107 140 158 157 251 231 232 190 169 197 218 227 274 245 165 263 184 244 233 162 238 25 141 331
39 57 49 25 345 2 1 76 268 344 354 69 31 342 287 251 333 325 340 52 71 115 172 172 204 235 230 186 204 227 171 313 336 347 1 11 25 316 261 248 49 154 121 243
56 51 39 31 359 353 10 67 30 340 46 101 83 10 17 37 1 78 10 27 38 98 74 248 183 300 315 180 224 175 125 113 159 179 227 271 330 333 349 164 79 162 253 192
54 55 44 20 10 6 5 20 332 177 353 351 15 24 4 23 12 355 20 37 19 288 65 12 26 345 343 214 324 125 129 158 83 265 269 275 273 319 347 51 259 116 160 221
39 57 53 34 23 35 69 88 50 2 317 312 1 4 4 34 358 19 2 74 342 40 100 152 302 318 37 271 325 73 5 261 86 291 343 355 312 333 330 15 41 80 142 301
24 43 57 48 40 56 84 55 99 105 335 352 31 346 351 351 313 82 76 306 41 25 335 224 240 228 272 258 256 309 68 111 56 276 337 317 337 279 347 311 308 144 202 171
33 31 54 58 61 58 97 91 104 63 335 38 342 4 23 9 0 0 350 20 34 318 314 265 249 247 261 264 67 185 132 99 95 259 356 12 237 210 212 235 264 253 273 279
39 37 28 51 59 73 73 60 95 110 53 256 356 359 350 347 343 25 350 345 262 307 0 14 350 328 342 328 36 358 107 117 58 98 224 285 239 199 185 182 270 199 194 165
5 27 27 18 60 107 104 70 87 93 111 271 192 304 322 1 341 351 313 323 313 40 68 48 16 292 311 324 331 91 78 66 113 99 231 241 237 184 160 143 288 189 167 174
303 356 17 18 6 121 150 101 112 113 100 248 191 229 190 205 124 237 299 329 353 25 37 46 355 289 248 306 296 310 337 6 181 194 247 286 243 159 171 92 245 167 170 181
299 310 351 8 10 231 254 122 114 167 144 220 186 188 218 333 229 151 285 21 335 27 66 114 246 216 267 320 247 235 222 158 219 127 244 294 157 81 168 216 218 168 151 180
273 287 314 344 357 344 237 194 150 141 108 180 198 216 216 198 194 167 353 209 220 217 79 282 131 249 230 188 278 272 263 191 207 186 221 237 211 205 214 176 168 198 183 180
276 275 294 321 350 1 290 198 163 137 100 350 51 229 211 217 213 190 142 246 185 182 159 165 261 266 126 235 244 245 248 175 216 3 250 231 235 237 213 192 203 176 176 168
277 281 276 302 322 352 12 247 212 130 110 149 269 197 226 216 201 200 203 152 143 121 120 169 192 215 170 228 244 213 207 151 208 263 281 282 257 219 193 181 155 139 122 145
253 244 265 269 292 310 332 8 74 220 174 218 254 253 215 200 205 212 212 201 147 155 142 167 226 226 138 228 318 244 185 199 177 227 227 174 258 243 162 166 183 180 151 130
246 253 251 240 275 287 312 344 210 2 356 69 307 336 150 168 212 220 196 198 172 128 178 231 260 284 173 254 252 255 219 220 197 222 180 171 8 104 138 166 173 169 167 161
243 245 256 255 250 243 214 202 289 333 173 81 318 316 316 145 137 175 147 131 158 164 232 235 216 264 177 244 245 284 261 246 257 218 122 196 207 217 173 148 150 154 138 152
237 239 239 249 276 221 228 229 241 305 119 92 169 273 333 181 160 195 264 166 145 212 216 222 191 49 131 261 251 277 269 292 249 212 206 204 131 120 128 124 131 132 147 152
221 216 249 275 234 231 211 212 230 227 215 204 135 162 248 9 71 89 46 69 307 337 242 230 154 201 221 228 233 271 261 232 278 132 126 140 168 160 157 148 160 159 175 173
195 178 202 279 234 246 261 209 42 25 315 50 214 124 189 114 64 64 73 21 225 257 254 37 215 254 263 265 252 258 257 221 157 139 186 181 191 187 185 193 179 175 174 171
170 210 224 150 151 162 19 262 172 207 250 179 207 188 147 205 133 184 172 201 314 334 252 183 268 271 247 222 261 266 263 233 204 194 193 190 171 182 176 179 182 176 172 177
190 181 136 153 80 51 95 231 315 214 221 182 151 181 171 149 147 113 149 154 46 248 330 65 264 251 248 259 281 288 303 226 178 174 167 171 172 171 167 169 172 176 178 172
150 153 58 61 255 62 190 212 246 263 191 184 165 141 149 123 109 88 113 136 220 63 29 237 234 262 264 267 284 265 128 145 139 139 157 161 155 167 166 164 176 170 166 175
154 146 238 189 232 240 192 188 199 237 93 139 105 114 137 151 110 135 125 222 80 352 257 236 244 239 264 288 254 247 213 176 163 165 166 165 161 162 169 173 170 168 173 183
185 150 219 212 217 272 247 204 128 261 138 111 86 33 62 122 118 165 91 32 248 214 230 229 232 230 257 279 244 228 235 210 192 174 165 167 162 157 157 166 170 176 175 183
215 241 233 191 122 193 210 206 173 188 135 63 52 119 67 218 144 131 206 162 224 241 215 221 198 217 236 247 235 217 209 208 219 193 181 173 174 173 171 170 178 182 190 192
223 237 243 170 135 167 177 177 188 150 115 174 130 160 207 115 121 219 183 212 221 213 228 201 210 224 252 250 243 220 209 199 202 208 201 193 188 173 162 166 190 193 201 211